Location: Wald
(31.7579°N, 86.6655°W)
Time: 11:52:50
(UTC+00:00)

Cosmos 2360 Rocket - Pass Details

Date: 14 July 2020
Orbit: 832 x 846 km, 71.0° (Epoch: 08 August)

Event Time Altitude Azimuth Distance (km) Brightness Sun altitude
Rises 10:08:17 0° 347° (NNW) 3,410 5.6 -8.9°
Reaches altitude 10° 10:10:52 10° 354° (N) 2,471 5.0 -8.4°
Maximum altitude 10:16:16 44° 66° (ENE) 1,154 3.6 -7.4°
Drops below altitude 10° 10:21:38 10° 138° (SE) 2,455 4.8 -6.4°
Sets 10:24:10 0° 144° (SE) 3,385 5.4 -6.0°
